Dewpoint
50 50 50 51 51 51 51 51 51 51 51 52 52 52 51 51 51 52 52 52 52 51 52 52 52 52 52 53 53 53 53 51 49 47 46 44 47 50 57 58 57 58 56 40 37 36 35 35 36 34 36 31 33 31 33 35 31 25 23 20 18 15 14 18 13 13 14 11 10 10 11 10 9 13 23 58 58 60 61 62 63 66 66 65 64 64 65 67
50 51 51 51 51 51 51 51 51 51 52 51 51 51 51 51 51 51 52 52 52 51 52 52 52 52 53 52 52 53 52 50 48 47 46 47 54 54 56 59 58 60 55 41 32 31 32 31 32 34 32 29 33 29 34 32 32 28 22 21 15 17 16 19 17 15 10 10 10 11 12 11 10 11 16 53 55 57 59 62 63 64 65 65 65 65 66 67
50 50 50 50 51 51 52 51 51 51 52 52 51 51 51 51 51 51 51 51 52 51 51 52 52 52 52 52 52 53 51 49 43 36 39 57 56 56 57 59 60 59 45 39 36 30 28 30 31 32 32 31 34 30 32 31 31 30 21 18 18 18 16 15 14 12 12 12 11 11 11 11 11 12 30 54 54 58 58 60 62 63 63 64 64 65 66 66
50 50 50 50 50 50 50 50 51 51 51 52 51 51 51 51 51 51 51 51 51 51 51 51 52 52 51 52 52 52 50 43 21 30 41 55 60 57 58 62 60 56 40 40 36 29 30 31 32 32 31 30 30 30 29 29 29 24 27 22 21 18 19 17 16 15 13 13 11 11 11 11 11 11 50 55 54 54 57 60 61 62 64 64 64 65 66 64
50 50 50 50 50 50 50 50 50 50 50 50 51 51 51 51 51 51 51 51 51 51 51 51 51 51 51 52 52 51 47 2 34 39 42 63 64 58 59 63 59 41 37 37 29 28 28 30 31 29 27 26 29 29 29 29 25 23 27 27 25 23 21 17 15 13 12 13 12 12 11 11 11 22 54 54 51 48 52 58 63 65 65 64 64 65 64 62
50 50 50 50 50 50 50 50 50 50 50 50 50 50 51 51 51 51 51 51 51 51 51 51 51 51 51 52 50 50 21 -10 13 30 59 63 64 60 60 62 56 38 35 31 28 26 25 25 29 27 26 27 28 27 27 28 27 24 26 25 24 21 20 18 19 19 17 14 13 12 13 12 10 9 22 52 50 49 53 63 64 65 66 65 65 64 61 60
49 50 50 50 50 50 50 50 50 50 50 50 51 51 51 51 51 51 51 51 51 51 51 51 51 51 51 51 47 40 22 13 34 36 58 65 64 60 59 61 59 37 29 26 26 24 25 23 25 26 26 25 25 27 28 29 25 27 25 26 26 21 19 18 18 18 15 13 12 13 12 9 9 7 16 49 53 51 61 64 65 66 65 65 63 62 61 60
49 49 50 49 50 50 50 50 50 50 50 50 50 51 51 51 50 51 51 50 50 50 50 50 50 51 51 47 43 36 25 16 22 29 65 64 61 58 59 54 47 37 30 26 24 23 24 23 22 24 24 22 23 26 27 26 24 24 24 23 21 22 21 20 17 15 13 11 10 11 9 7 9 9 30 32 39 58 63 65 65 65 64 63 62 61 60 60
49 49 50 50 50 50 50 50 50 50 50 50 50 50 51 50 50 50 50 50 50 50 50 51 50 50 52 48 34 6 3 8 28 50 59 58 58 55 51 48 43 36 32 26 22 22 23 23 23 21 16 23 25 24 25 23 23 23 24 25 24 23 22 20 16 14 13 10 10 8 6 7 8 12 17 17 43 62 65 65 65 65 63 62 61 60 60 59
49 49 50 50 50 50 50 50 50 50 50 50 50 50 50 50 50 50 50 50 50 50 50 51 50 50 48 46 24 15 14 7 52 54 58 55 52 47 40 43 40 34 33 28 22 22 22 21 23 25 24 23 24 23 24 23 21 23 23 23 22 20 15 11 9 8 8 9 9 5 4 5 10 8 4 25 59 64 64 65 65 64 62 60 60 60 59 58
49 50 50 50 50 50 50 50 50 50 50 50 50 50 50 50 50 50 50 50 50 50 50 50 50 49 47 45 25 14 15 50 49 50 53 51 47 42 40 41 37 35 32 28 24 22 22 22 25 25 25 23 20 18 20 21 22 17 17 12 10 10 11 9 8 6 6 6 6 5 4 8 9 7 5 17 62 64 64 64 64 63 60 60 60 60 59 58
49 49 49 49 49 50 50 50 49 50 50 50 50 50 50 50 50 50 50 50 50 50 50 50 49 49 48 44 34 19 21 45 48 45 49 47 47 46 43 40 37 36 31 28 26 25 24 24 28 27 22 27 23 22 21 21 13 14 14 10 10 10 10 11 7 8 7 5 9 7 7 5 8 5 5 35 63 64 64 63 63 62 60 60 60 59 59 59
49 49 49 49 49 49 50 50 49 49 50 50 50 50 50 50 50 50 50 50 50 49 49 49 48 48 44 24 27 32 29 28 27 32 30 30 29 43 41 37 38 35 32 30 27 27 23 27 28 26 27 27 25 22 19 19 18 14 13 10 9 10 9 9 12 9 7 5 10 7 4 8 9 7 8 53 62 63 63 63 63 62 61 61 61 59 58 60
49 49 49 49 49 49 49 50 50 49 50 50 50 49 50 50 50 50 50 50 50 50 51 50 50 46 42 23 24 31 32 33 35 35 33 37 32 31 39 34 38 35 32 30 25 27 24 27 29 28 26 25 23 23 22 17 14 13 13 11 13 9 10 11 11 11 8 9 9 7 8 7 8 8 11 39 62 62 61 62 63 62 62 62 61 60 59 60
49 49 49 49 49 49 49 49 49 49 49 50 49 49 49 49 50 50 50 50 49 50 50 52 50 46 36 30 37 39 50 40 40 36 35 33 32 32 33 32 30 33 30 28 25 28 26 26 26 23 21 25 22 19 17 13 14 16 10 11 16 10 11 12 16 19 9 9 10 7 15 9 7 8 21 45 61 61 61 62 62 63 62 62 61 61 60 60
49 49 49 49 49 49 49 50 49 49 49 49 49 49 49 49 50 51 50 49 50 51 49 46 46 47 35 25 27 43 46 36 36 44 41 35 34 30 31 31 27 27 26 25 24 23 23 25 20 21 21 22 19 19 17 15 18 18 16 17 14 16 13 10 11 11 11 9 8 8 6 7 5 8 19 37 61 61 61 61 61 62 62 62 61 61 61 60
48 49 49 48 48 49 49 49 49 49 49 49 49 49 49 50 51 51 51 50 51 50 47 45 46 47 20 22 33 30 29 34 40 44 41 38 35 33 29 29 28 25 23 23 26 20 20 21 24 24 25 20 18 16 15 17 16 18 19 13 19 12 14 11 12 13 10 7 7 9 6 9 7 8 11 22 59 59 60 61 62 62 62 62 61 61 60 60
48 48 48 48 48 48 48 49 49 49 49 49 48 48 47 50 51 51 51 50 49 48 48 48 46 31 15 34 22 26 34 39 36 41 41 40 36 34 30 29 29 27 25 26 26 21 24 20 22 25 24 23 20 17 17 15 18 12 12 13 16 17 17 11 11 10 12 10 11 12 10 8 7 7 9 21 48 58 59 60 61 62 62 62 61 61 60 60
48 48 48 48 48 48 48 48 49 49 49 49 49 48 50 50 48 47 47 48 41 34 28 35 29 7 8 22 30 30 30 31 32 34 33 36 35 33 34 32 29 29 28 27 27 24 23 25 25 19 21 19 19 16 16 18 17 12 13 14 16 14 12 11 12 14 13 12 12 12 13 12 12 12 13 17 35 57 57 59 61 61 62 62 61 61 60 60
47 48 48 48 48 48 48 48 49 49 48 48 46 46 40 31 28 25 43 46 43 33 28 35 35 30 32 32 31 30 30 34 27 30 36 40 33 31 32 33 27 27 26 28 27 28 23 22 19 19 20 25 27 21 19 14 14 13 14 15 13 12 12 12 12 13 14 14 14 13 16 15 14 14 15 19 29 49 54 56 59 61 61 61 61 60 60 60
48 47 48 48 48 48 48 48 49 49 49 47 45 35 27 26 28 28 27 27 37 41 38 36 38 34 31 31 30 30 26 28 30 31 33 37 33 29 28 29 27 29 28 28 25 32 25 23 22 23 24 25 26 26 25 23 22 17 18 16 14 12 13 13 12 13 14 18 18 21 20 20 19 20 21 21 30 42 49 53 57 60 61 61 61 60 60 60
47 47 47 48 48 48 48 48 49 49 48 45 43 35 34 28 30 30 29 28 29 31 36 36 35 36 36 33 32 32 31 27 21 20 28 33 32 26 26 27 25 26 28 26 25 23 21 20 22 25 25 30 30 31 27 23 22 21 18 18 14 14 13 13 14 16 19 20 16 20 18 17 18 19 21 22 23 31 44 50 56 58 60 61 61 60 60 60
47 47 48 48 48 48 48 48 49 48 43 41 39 39 37 37 37 36 34 32 31 32 31 33 35 35 33 35 35 33 29 27 18 20 26 28 30 28 23 24 25 24 26 26 25 23 23 23 24 23 27 24 23 27 26 25 25 20 21 16 14 15 13 12 20 20 21 22 19 18 18 20 22 23 22 23 21 20 29 45 53 58 59 60 60 60 59 59
47 47 47 48 48 47 48 48 47 44 40 41 41 39 39 38 38 38 34 31 27 29 31 32 33 34 34 31 32 31 27 25 24 19 30 25 27 24 23 23 22 22 21 22 24 24 23 22 21 23 24 22 23 25 22 19 18 25 22 18 15 15 15 12 15 21 25 25 29 21 21 18 20 18 17 23 26 24 17 37 48 55 58 60 61 60 60 59
47 47 47 48 48 48 48 48 41 41 43 41 41 43 43 42 41 39 34 30 25 25 32 29 33 31 31 34 33 29 28 29 26 21 29 24 23 21 20 22 21 20 20 21 23 24 22 24 23 20 21 20 22 21 22 22 19 21 25 19 17 16 15 15 21 18 20 17 27 16 14 17 18 18 20 24 29 20 26 33 43 53 57 59 59 59 60 59
47 47 47 47 47 47 48 40 40 43 42 40 39 40 41 39 40 42 33 26 22 25 29 27 30 23 31 32 32 32 28 23 27 26 29 25 27 24 24 21 21 19 20 21 20 24 21 27 23 21 22 22 20 19 22 21 18 16 17 22 18 16 17 16 19 19 16 14 21 25 13 15 16 17 21 30 38 42 42 39 42 53 56 58 59 59 59 59
47 47 47 47 47 47 40 30 44 42 35 30 37 41 39 40 43 40 29 18 12 23 24 26 21 22 28 27 32 20 5 4 29 29 28 33 24 27 23 21 22 23 23 26 24 21 20 20 21 23 23 20 20 17 21 19 17 14 20 21 18 17 17 19 20 17 17 26 28 24 17 12 11 16 24 34 41 43 45 46 47 52 55 57 59 59 59 59
46 47 47 47 47 47 44 45 43 40 36 36 42 41 41 42 42 37 21 3 -3 16 22 23 21 26 23 29 29 14 9 19 18 22 26 28 25 28 24 21 20 20 20 24 20 26 25 22 23 20 23 19 16 17 24 18 15 15 25 19 18 17 17 18 18 21 22 17 15 18 24 14 15 21 29 39 38 41 45 46 48 52 56 58 59 59 59 59
46 47 46 47 47 47 46 45 43 41 41 43 43 42 43 42 36 26 17 1 9 19 24 18 24 15 20 29 27 23 20 23 18 23 27 26 25 23 23 22 21 21 18 22 22 23 20 19 19 18 18 17 17 16 20 17 16 18 24 22 20 21 22 22 21 20 18 13 13 16 22 11 12 19 36 39 38 42 43 47 51 55 57 58 59 59 59 58
47 47 47 47 47 45 43 46 44 44 45 45 44 43 42 35 25 16 9 2 20 15 18 17 13 9 17 25 24 24 22 19 23 26 25 23 23 24 24 23 21 21 19 20 19 23 24 36 26 16 16 17 16 15 18 17 15 22 19 18 18 23 21 26 22 21 16 8 13 18 22 14 11 19 36 40 42 45 46 46 51 56 57 58 59 59 59 58
47 47 47 47 45 45 43 38 40 43 45 44 44 39 28 22 22 10 5 12 20 22 15 10 6 12 10 7 7 14 20 19 18 24 23 24 23 24 23 20 24 24 23 22 21 21 21 19 17 17 25 16 14 13 16 17 18 17 19 17 18 18 18 16 20 19 8 10 14 17 19 18 11 19 34 43 48 49 48 46 49 55 56 58 58 58 58 58
47 47 47 47 46 46 41 30 33 44 45 45 41 26 15 2 14 6 7 18 14 15 12 7 9 12 10 8 9 18 16 18 20 22 21 21 23 22 22 21 23 18 18 19 19 25 21 19 18 17 37 15 14 12 14 17 16 15 21 19 15 15 10 7 14 7 7 11 15 23 22 17 15 23 43 47 48 50 48 47 49 55 56 57 57 57 57 58
47 47 48 47 48 46 46 44 44 45 45 44 33 22 11 9 -3 14 12 16 10 15 13 17 10 13 10 7 9 9 17 15 21 22 22 23 22 22 23 22 22 23 18 24 20 19 20 23 18 17 16 23 15 14 15 13 17 16 14 16 14 9 6 2 8 10 12 16 17 19 24 15 24 32 43 48 50 51 50 51 55 56 57 56 56 57 56 55
47 47 46 46 47 47 47 46 47 46 44 41 27 14 1 -9 -5 34 16 23 18 19 13 15 16 9 8 14 14 12 19 28 20 22 21 24 22 23 23 22 22 23 23 23 19 19 12 14 18 16 16 19 14 14 13 16 18 15 16 14 15 14 9 3 11 5 7 10 16 23 16 14 24 31 48 49 51 52 51 55 56 56 56 55 55 54 54 54
47 47 45 45 46 47 47 47 45 46 39 29 18 12 0 1 13 10 18 20 18 16 16 19 10 8 8 11 15 12 19 24 34 23 23 21 21 24 24 21 24 24 23 18 23 16 16 16 18 18 15 15 13 15 15 15 16 17 16 14 15 15 18 11 15 14 15 13 12 21 26 34 33 43 47 49 52 52 53 53 53 53 54 53 53 53 53 54
45 42 44 43 45 47 47 47 45 43 28 23 18 6 -2 10 -0 15 20 20 17 17 17 13 9 6 13 14 15 6 15 26 30 28 28 22 25 23 24 25 22 21 21 20 21 17 16 18 20 20 18 16 14 19 17 13 14 21 12 14 16 19 17 16 16 20 14 15 12 21 35 38 39 36 43 49 50 51 52 52 52 51 52 53 53 53 54 54
43 44 42 45 48 48 47 47 46 36 23 16 13 1 16 19 7 19 31 19 21 18 13 14 17 6 13 14 13 9 13 25 31 27 24 28 25 29 29 26 24 22 20 23 21 18 14 15 20 17 16 16 15 16 15 15 18 13 13 13 21 22 23 16 10 13 8 7 11 27 31 31 28 26 40 47 49 50 51 51 51 51 51 51 52 53 53 54
43 42 48 48 48 47 47 46 44 35 25 17 4 31 25 20 24 19 20 23 25 22 15 12 15 11 16 18 19 13 14 14 21 28 28 32 26 33 35 29 33 25 21 23 20 26 18 16 20 18 15 14 24 14 13 15 20 17 19 17 16 13 11 18 18 8 7 6 6 22 29 31 28 28 37 44 46 48 49 50 50 49 50 51 52 53 54 55
44 43 39 44 47 47 46 46 41 36 26 16 15 20 25 23 28 27 25 26 24 21 19 17 16 19 19 21 18 14 19 15 21 28 24 29 24 31 34 34 32 35 27 20 20 24 25 17 20 22 18 19 21 19 15 19 17 19 20 19 26 22 22 13 14 17 16 5 10 17 27 22 31 31 37 39 45 49 49 49 49 50 51 52 52 53 54 54
43 38 37 45 46 46 47 46 39 33 27 21 23 23 22 28 29 30 29 29 28 23 24 20 15 18 24 21 18 15 22 18 26 26 24 31 27 31 34 39 31 33 33 24 24 29 20 20 14 20 22 19 19 28 21 20 16 13 15 16 20 26 28 22 22 16 15 11 11 13 17 23 29 39 44 44 46 48 49 49 50 50 51 52 53 53 54 54
41 37 37 45 46 47 46 40 35 30 28 28 29 29 33 32 32 32 32 32 30 29 27 24 24 21 23 18 18 19 20 21 28 26 30 31 30 30 34 38 36 34 37 32 29 29 23 21 19 24 22 21 19 27 30 26 21 17 16 17 20 22 18 13 16 21 22 17 11 17 14 23 31 45 46 46 45 48 49 49 49 50 51 52 52 53 53 54
37 33 36 45 46 46 40 33 31 33 30 31 30 33 32 36 32 32 31 30 30 28 27 27 25 25 23 20 18 20 22 19 24 29 29 28 31 29 32 38 37 40 34 29 29 31 28 26 24 19 22 22 24 26 28 32 33 30 31 28 28 25 21 17 9 16 22 24 23 22 19 21 37 44 46 48 48 49 49 49 49 50 50 51 52 53 53 54
35 35 42 47 48 40 32 25 30 29 28 31 35 33 34 33 33 31 29 29 28 28 26 25 24 22 22 20 23 21 19 21 24 28 31 35 34 32 33 35 36 35 36 35 33 33 48 23 24 24 24 27 27 28 27 28 28 29 32 33 30 26 23 20 20 22 20 22 21 19 17 23 36 45 48 48 48 46 48 50 50 50 51 51 52 52 53 53
36 37 42 44 44 40 34 27 26 23 28 34 33 33 34 33 32 30 29 30 29 28 25 25 26 22 23 25 24 23 28 20 26 30 28 31 30 33 35 37 37 33 32 34 31 39 27 29 24 20 17 21 24 24 25 25 32 29 29 31 33 32 31 28 25 25 20 24 22 20 16 26 35 46 48 48 47 47 49 50 50 50 50 50 51 50 50 51
35 37 40 40 40 40 34 29 26 23 27 30 31 28 29 31 32 31 30 30 31 30 28 28 27 28 29 30 29 29 30 26 24 30 30 32 30 33 33 36 37 38 42 42 39 35 31 30 25 20 15 13 13 14 15 15 24 28 32 33 34 29 28 23 16 18 15 19 23 18 20 29 42 46 47 47 47 47 49 50 49 49 48 48 47 46 46 46
32 29 31 32 33 35 35 35 32 30 27 29 23 26 31 27 28 29 31 32 29 28 29 29 27 29 28 30 28 28 26 29 28 30 29 31 29 32 33 34 39 44 47 46 45 37 30 32 31 26 20 20 19 20 23 29 27 26 29 32 33 33 33 25 23 18 16 17 18 24 32 36 40 43 45 46 46 47 47 47 45 44 43 44 43 43 42 43
33 28 23 27 30 30 29 31 32 30 27 29 23 27 26 27 29 27 30 26 29 28 30 27 26 25 24 26 26 26 26 28 26 29 28 28 28 33 33 34 34 43 45 43 44 33 32 29 31 31 32 30 31 29 30 31 28 31 31 31 33 34 32 27 22 21 25 23 17 27 36 37 39 43 45 45 47 46 45 43 41 40 41 41 41 42 42 41
25 25 30 30 27 23 24 21 31 30 32 29 25 29 26 26 26 23 29 29 29 28 25 25 24 25 26 25 26 21 23 25 25 21 28 29 28 29 32 33 34 40 41 37 41 36 32 29 32 32 31 34 35 33 33 33 31 30 30 30 33 36 33 30 30 30 25 18 21 31 38 38 40 43 45 46 45 42 40 38 38 39 41 41 40 39 39 39
30 30 32 34 24 26 26 28 32 28 27 31 30 28 26 26 24 25 26 28 28 28 27 20 25 24 25 27 25 22 22 21 19 24 24 26 25 26 27 30 32 35 36 38 37 37 34 31 34 33 31 33 35 34 33 32 30 29 30 30 33 36 37 35 34 34 29 26 30 39 39 37 39 42 44 42 40 39 38 38 37 38 39 39 38 38 39 39
29 27 28 32 31 29 30 28 29 26 22 29 21 24 28 28 25 25 29 25 22 26 32 26 24 25 27 27 26 21 21 23 20 17 25 24 27 26 24 29 31 31 33 36 36 33 32 28 36 35 30 31 34 35 33 31 28 28 29 30 30 32 36 37 39 39 39 39 39 39 37 35 39 42 41 40 38 37 37 36 37 37 37 37 37 37 37 38
33 34 33 29 23 25 30 26 25 24 19 22 21 24 27 27 25 26 26 28 25 25 29 23 24 27 29 27 26 24 25 26 25 23 26 24 22 31 29 34 32 30 30 35 36 34 34 29 33 32 28 29 33 33 33 33 30 28 28 29 30 30 32 34 34 37 37 36 37 37 36 33 38 40 39 38 36 35 36 36 36 36 36 35 35 36 37 37
36 37 33 28 22 29 20 23 23 22 18 21 24 24 25 25 28 27 18 21 27 26 28 28 29 24 22 31 31 25 25 27 26 25 24 26 25 31 30 31 36 29 28 34 37 32 34 32 29 30 30 27 33 34 32 29 30 27 25 30 31 32 33 35 37 37 37 38 36 35 35 37 38 39 36 36 35 35 35 36 36 37 38 38 38 38 39 39